Weather History for Binghamton, NY

Change the Weather History Date:

Tuesday, October 16, 2012

  Actual Average Record
Temperature  
Mean Temperature 43 °F 48 °F  
Max Temperature 50 °F 57 °F 79 °F (1956)
Min Temperature 36 °F 40 °F 30 °F (2009)
Degree Days  
Heating Degree Days 22 17  
Month to date heating degree days 240 227  
Since 1 July heating degree days 454 484  
Cooling Degree Days 0 0  
Month to date cooling degree days 1 0  
Year to date cooling degree days 548 379  
Moisture  
Dew Point 33 °F    
Average Humidity 63    
Maximum Humidity 76    
Minimum Humidity 50    
Precipitation  
Precipitation T in 0.10 in 1.61 in (2002)
Month to date precipitation 0.79 1.77  
Year to date precipitation 30.09 31.61  
Snow  
Snow 0.00 in 0.00 in 0.80 in (2009)
Month to date snowfall T 0.2  
Since 1 July snowfall T 0.2  
Since 1 September snowfall T 0.2  
Snow Depth 0.00 in    
Sea Level Pressure  
Sea Level Pressure 29.84 in    
Wind  
Wind Speed 9 mph (NW)    
Max Wind Speed 18 mph    
Max Gust Speed 26 mph    
Visibility 10 miles    
Events Rain    
T = Trace of Precipitation, MM = Missing Value Source: NWS Daily Summary

Daily Weather History Graph

Daily Weather History Graph

Search for Another Location

Airport:

Trip Planner

Search our weather history database for the weather conditions in past years. The results will help you decide how hot, cold, wet, or windy it might be!

Date:

Astronomy

Oct. 16, 2012 Rise Set
Actual Time 7:18 AM EDT 6:19 PM EDT
Civil Twilight 6:49 AM EDT 6:48 PM EDT
Nautical Twilight 6:17 AM EDT 7:20 PM EDT
Astronomical Twilight 5:45 AM EDT 7:52 PM EDT
Moon 8:40 AM EDT (10/16) 6:59 PM EDT (10/16)
Length of Visible Light 11h 58m
Length of Day
11h 01m
New Moon, 2% of the Moon is Illuminated
Oct 16
New Moon
Oct 21
First Quarter
Oct 29
Full
Nov 6
Last Quarter
Nov 13
New

Hourly Weather History & Observations

Time (EDT) Temp. Windchill Dew Point Humidity Pressure Visibility Wind Dir Wind Speed Gust Speed Precip Events Conditions
12:09 AM 48.2 °F - 37.4 °F 66% 29.74 in 10.0 mi NW 16.1 mph 24.2 mph N/A   Overcast
12:21 AM 46.4 °F 42.4 °F 37.4 °F 71% 29.74 in 10.0 mi WNW 8.1 mph - N/A   Overcast
12:53 AM 46.9 °F - 36.0 °F 66% 29.74 in 10.0 mi NW 13.8 mph 23.0 mph N/A   Overcast
1:25 AM 46.4 °F 41.9 °F 35.6 °F 66% 29.76 in 10.0 mi NW 9.2 mph 20.7 mph N/A   Overcast
1:53 AM 45.0 °F 38.2 °F 34.0 °F 65% 29.76 in 10.0 mi NW 15.0 mph 24.2 mph N/A   Overcast
2:53 AM 44.1 °F 39.5 °F 33.1 °F 65% 29.76 in 10.0 mi NW 8.1 mph 19.6 mph N/A   Overcast
3:53 AM 43.0 °F 36.8 °F 34.0 °F 71% 29.75 in 10.0 mi NW 11.5 mph 19.6 mph N/A   Overcast
4:53 AM 42.1 °F 36.6 °F 32.0 °F 67% 29.78 in 10.0 mi NW 9.2 mph 23.0 mph N/A   Overcast
5:53 AM 41.0 °F 33.1 °F 32.0 °F 70% 29.79 in 10.0 mi NW 15.0 mph 21.9 mph N/A   Overcast
6:53 AM 41.0 °F 33.1 °F 30.9 °F 67% 29.82 in 10.0 mi NNW 15.0 mph 26.5 mph N/A   Overcast
7:53 AM 41.0 °F 34.3 °F 33.8 °F 76% 29.82 in 10.0 mi NW 11.5 mph 18.4 mph N/A   Overcast
8:53 AM 39.9 °F 33.9 °F 35.1 °F 83% 29.86 in 10.0 mi NW 9.2 mph - 0.00 in Rain Light Rain
9:53 AM 41.0 °F 35.8 °F 34.0 °F 76% 29.87 in 10.0 mi NW 8.1 mph 16.1 mph 0.00 in   Overcast
10:42 AM 42.8 °F 37.0 °F 33.8 °F 70% 29.85 in 10.0 mi NW 10.4 mph 21.9 mph N/A   Overcast
10:53 AM 43.0 °F 36.8 °F 33.1 °F 68% 29.87 in 10.0 mi NW 11.5 mph 18.4 mph N/A   Overcast
11:53 AM 44.1 °F 37.4 °F 32.0 °F 63% 29.88 in 10.0 mi WNW 13.8 mph 20.7 mph N/A   Overcast
12:53 PM 44.1 °F 38.1 °F 33.1 °F 65% 29.87 in 10.0 mi NW 11.5 mph 18.4 mph N/A   Overcast
1:53 PM 46.0 °F 39.6 °F 33.1 °F 61% 29.87 in 10.0 mi NNW 15.0 mph 19.6 mph N/A   Overcast
2:11 PM 46.4 °F 40.1 °F 33.8 °F 62% 29.84 in 10.0 mi NNW 15.0 mph 20.7 mph N/A   Overcast
2:53 PM 48.0 °F - 32.0 °F 54% 29.86 in 10.0 mi WNW 8.1 mph - N/A   Scattered Clouds
3:53 PM 48.9 °F - 30.9 °F 50% 29.86 in 10.0 mi NNW 9.2 mph 18.4 mph N/A   Clear
4:53 PM 48.9 °F - 32.0 °F 52% 29.86 in 10.0 mi NNW 6.9 mph - N/A   Clear
5:53 PM 46.9 °F - 32.0 °F 56% 29.87 in 10.0 mi NNW 5.8 mph - N/A   Clear
6:53 PM 43.0 °F 38.8 °F 32.0 °F 65% 29.87 in 10.0 mi North 6.9 mph - N/A   Clear
7:53 PM 42.1 °F 37.1 °F 32.0 °F 67% 29.88 in 10.0 mi North 8.1 mph - N/A   Clear
8:53 PM 42.1 °F 40.2 °F 30.9 °F 65% 29.89 in 10.0 mi North 3.5 mph - N/A   Clear
9:53 PM 42.1 °F 40.2 °F 32.0 °F 67% 29.93 in 10.0 mi West 3.5 mph - N/A   Clear
10:53 PM 39.9 °F - 32.0 °F 73% 29.94 in 10.0 mi Calm Calm - N/A   Clear
11:53 PM 39.9 °F - 30.9 °F 70% 29.93 in 10.0 mi Calm Calm - N/A   Clear